Location: Bartshausen
(51.8454°N, 9.8167°E)
Time: 06:52:24
(UTC+00:00)

BREEZE-M DEB (TANK) - Pass Details

Date: 08 November 2025
Orbit: 748 x 22178 km, 51.3° (Epoch: 11 December)

Event Time Altitude Azimuth Distance (km) Brightness Sun altitude
Exits shadow 02:53:15 65° 215° (SW) 1,777 4.5 -33.1°
Maximum altitude 02:53:37 66° 201° (SSW) 1,830 4.6 -33.0°
Drops below altitude 10° 03:15:56 10° 127° (SE) 9,743 9.1 -29.7°
Sets 03:31:24 0° 127° (SE) 14,290 10.1 -27.3°
